Location: Unspecified
(0.0000°N, 0.0000°E)
Time: 09:09:53
(UTC+02:00)

Meteor PRIRODA - Visible Passes

Search period start: 30 April 2016 00:00
Search period end: 10 May 2016 00:00
Orbit: 496 x 519 km, 97.4° (Epoch: 30 April)

Date Brightness Start Highest point End Pass type
(mag) Time Alt. Az. Time Alt. Az. Time Alt. Az.
30 Apr 5.6 06:58:01 10° NW 06:59:15 14° WNW 06:59:15 14° WNW visible
01 May 5.1 06:39:50 10° NNW 06:41:54 23° NW 06:41:54 23° NW visible
02 May 4.7 06:22:11 10° N 06:24:31 34° NNW 06:24:31 34° NNW visible
03 May 5.0 06:04:55 10° NNE 06:07:09 35° NNE 06:07:09 35° NNE visible
04 May 5.9 05:47:58 10° NNE 05:49:45 24° NE 05:49:45 24° NE visible
05 May 6.7 05:31:27 10° NE 05:32:22 14° ENE 05:32:22 14° ENE visible
05 May 5.8 07:06:29 10° WNW 07:07:13 11° WNW 07:07:13 11° WNW visible
06 May 5.2 06:47:43 10° NNW 06:49:50 20° WNW 06:49:50 20° WNW visible
07 May 4.6 06:29:52 10° N 06:32:25 33° NW 06:32:25 33° NW visible
08 May 4.5 06:12:25 10° N 06:15:01 43° N 06:15:01 43° N visible
09 May 5.3 05:55:18 10° NNE 05:57:36 32° NE 05:57:36 32° NE visible
